Home > Weather > St. John's > Past weeks

Flag for Canada Weather for the Past 2 Weeks in St. John's, Newfoundland and Labrador, Canada

Now
16 °F

Passing clouds.


Feels Like: 7 °F
Forecast: N/A
Wind: 6 mph from North

Location: St. John's

Current Time: Feb 14, 2016 at 6:36:17 PM

Latest Report: Feb 14, 2016 at 5:30 PM


Visibility: 15 mi

Pressure: 29.70 "Hg

Humidity: 79%

Dew point: 10 °F

Location of St. John'sLocation

Historic Weather in St. John's — Graph

°F

St. John's Temperature Yesterday

Maximum temperature yesterday: 30 °F (at 8:30 PM)
Minimum temperature yesterday: 16 °F (at 5:30 AM)
Average temperature yesterday: 23 °F

High & Low Weather Summary for the Past Weeks

 TemperatureHumidityPressure
High55 °F (Feb 6, 5:30 AM)100% (Jan 31, 11:30 PM)30.39 "Hg (Jan 31, 11:30 PM)
Low16 °F (Feb 3, 5:30 AM)54% (Feb 3, 2:30 PM)28.89 "Hg (Feb 10, 7:30 AM)
Average28 °F83%29.80 "Hg
* Reported Jan 30 4:30 PM — Feb 14 4:30 PM, St. John's, Weather by CustomWeather, © 2016

Note: Actual official high and low records may vary slightly from our data, if they occured in-between our weather recording intervals... More about our weather records

Advertising

St. John's Weather History for the Previous 24 Hours

 ConditionsComfort  
Time TempWeatherWind HumidityBarometerVisibility
4:30 PM
Sun, Feb 14
18 °FPartly sunny.12 mph73%29.71 "Hg15 mi
3:30 PM19 °FBroken clouds.12 mph73%29.71 "Hg15 mi
2:30 PM19 °FSnow flurries. Partly sunny.12 mph73%29.70 "Hg15 mi
1:30 PM19 °FScattered clouds.12 mph73%29.70 "Hg15 mi
12:30 PM18 °FCold.9 mph79%29.67 "Hg15 mi
11:30 AM18 °FSnow flurries. Partly sunny.12 mph79%29.67 "Hg15 mi
10:30 AM18 °FPartly sunny.15 mph79%29.65 "Hg15 mi
9:30 AM18 °FPartly sunny.16 mph79%29.61 "Hg15 mi
8:30 AM18 °FPartly sunny.17 mph79%29.56 "Hg15 mi
7:30 AM18 °FOvercast.18 mph86%29.51 "Hg15 mi
6:30 AM19 °FLight snow. Overcast.18 mph93%29.43 "Hg15 mi
5:30 AM25 °FLight snow. Low clouds.12 mph93%29.35 "Hg10 mi
4:30 AM25 °FLight snow. Overcast.12 mph93%29.30 "Hg10 mi
4:19 AM25 °FLight snow. Overcast.10 mph93%29.29 "Hg3 mi
3:30 AM25 °FLow clouds.7 mph93%29.25 "Hg15 mi
2:30 AM25 °FLow clouds.5 mph93%29.26 "Hg15 mi
1:30 AM25 °FLow clouds.13 mph93%29.25 "Hg15 mi
12:30 AM27 °FLight snow. Low clouds.10 mph93%29.25 "Hg15 mi
11:30 PM
Sat, Feb 13
27 °FLight snow. Low clouds.9 mph100%29.23 "Hg15 mi
10:30 PM28 °FLight freezing rain. Ice fog.10 mph93%29.19 "Hg6 mi
9:30 PM28 °FLight freezing rain. Ice fog.14 mph100%29.20 "Hg3 mi
9:17 PM28 °FLight freezing rain. Ice fog.12 mph100%29.19 "Hg3 mi
8:30 PM30 °FLight freezing rain. Ice fog.17 mph93%29.21 "Hg1 mi
7:30 PM28 °FSnow. Ice fog.23 mph93%29.30 "Hg1 mi
6:30 PM27 °FSnow. Ice fog.28 mph93%29.40 "Hg1 mi
Weather by CustomWeather, © 2016

See weather overviewHow to use our weather pages